#timestamp,LO_Frequency,Hit,StdDev 
1569535215.4,286046998.8,N
1569535235.2,286047001.2,N
1569535255.0,286046999.1,N
1569535256.0,286046999.1,N
1569535275.8,286046998.7,N
1569535295.6,286047000.3,N
1569535315.5,286047004.4,N
1569535335.3,286047002.1,N
1569535355.2,286047002.3,N
1569535375.9,286047000.7,N
1569535395.7,286047000.7,N
1569535415.6,286046998.4,N
1569535435.4,286046998.3,N
1569535455.2,286047000.6,N
1569535475.1,286046998.6,N
1569535476.0,286046998.6,N
1569535495.8,286046998.5,N
1569535515.7,286046999.9,N
1569535535.5,286047000.4,N
1569535555.3,286047001.2,N
1569535575.2,286047001.0,N
1569535595.0,286046998.1,N
1569535595.9,286046998.1,N
1569535615.8,286047000.7,N
1569535635.6,286047000.9,N
1569535655.4,286047000.0,N
1569535675.3,286046999.3,N
1569535695.1,286046996.8,N
1569535715.8,286046998.1,N
1569535735.7,286047001.1,N
1569535755.5,286047002.8,N
1569535775.4,286047002.7,N
1569535795.2,286047001.5,N
1569535815.0,286047001.5,N
1569535815.9,286047001.5,N
1569535835.8,286046999.8,N
1569535855.6,286047002.8,N
1569535875.4,286047002.6,N
1569535895.3,286047001.8,N
1569535915.1,286047001.9,N
1569535935.9,286047000.2,N
1569535955.7,286047002.8,N
1569535975.5,286047000.1,N
1569535995.4,286046999.7,N
1569536015.2,286047004.4,N
1569536035.1,286047003.0,N
1569536036.0,286047003.0,N
1569536055.8,286047005.7,Y
1569536075.6,286047003.2,P
1569536095.5,286047002.9,N
1569536115.3,286047007.6,P
1569536135.2,286047006.5,N
1569536155.9,286047008.8,Y
1569536175.7,286047006.0,P
1569536195.6,286047007.6,P
1569536215.4,286047007.5,P
1569536235.3,286047005.5,Y
1569536255.1,286046998.8,P
1569536256.0,286046998.8,N
1569536275.8,286046996.5,N
1569536295.7,286046997.5,N
1569536315.5,286046996.6,N
1569536335.3,286046997.0,N
1569536355.2,286046999.4,N
1569536375.0,286046999.1,N
1569536375.9,286046999.1,N
1569536395.8,286046996.8,N
1569536415.6,286046997.7,N
1569536435.4,286046996.9,N
1569536455.3,286046994.9,N
1569536475.1,286046996.0,N
1569536495.9,286046993.8,N
1569536515.7,286046993.7,N
1569536535.5,286046993.7,N
1569536555.4,286046994.4,N
1569536575.2,286046993.5,N
1569536595.0,286046996.2,N
1569536595.9,286046996.2,N
1569536615.8,286046996.3,N
1569536635.6,286046993.7,N
1569536655.5,286046996.3,N
1569536675.3,286046994.7,N
1569536695.1,286046992.5,N
1569536715.9,286046992.1,N
1569536735.7,286046994.0,N
1569536755.6,286046992.6,N
1569536775.4,286046992.6,N
1569536795.2,286046992.3,Y
1569536815.1,286046997.8,P
1569536816.0,286046997.8,N
1569536835.8,286046997.4,N
1569536855.7,286046997.8,N
1569536875.5,286046998.0,N
1569536895.3,286046995.1,Y
1569536915.2,286046999.2,P
1569536935.0,286046997.1,P
1569536935.9,286046997.1,P
1569536955.7,286046995.0,Y
1569536975.6,286046997.3,P
1569536995.4,286046995.7,P
1569537015.3,286046995.0,P
1569537035.1,286046997.2,N
1569537036.0,286046997.2,N
1569537055.8,286046997.0,Y
1569537075.7,286047001.2,P
1569537095.5,286046999.3,N
1569537115.4,286046998.8,N
1569537135.2,286047000.2,N
1569537155.0,286046999.0,N
1569537155.9,286046999.0,N
1569537175.8,286046999.0,N
1569537195.6,286046999.4,N
1569537215.5,286047000.8,N
1569537235.3,286047002.7,N
1569537255.1,286047000.8,N
1569537275.9,286046996.9,N
1569537295.7,286046999.1,N
1569537315.5,286046999.4,N
1569537335.4,286046999.3,N
1569537355.2,286047000.5,N
1569537375.1,286047000.6,N
1569537376.0,286047000.6,N
1569537395.8,286047000.7,N
1569537415.6,286047001.1,N
1569537435.5,286046997.1,N
1569537455.3,286046997.3,N
1569537475.2,286046996.7,N
1569537495.9,286046998.7,N
1569537515.8,286046999.6,N
1569537535.7,286046999.6,N
1569537555.5,286046996.8,N
1569537575.3,286046996.6,N
1569537595.2,286046999.3,N
1569537615.0,286046998.7,N
1569537615.9,286046998.7,N
1569537635.8,286046999.4,N
1569537655.6,286047000.2,N
1569537675.4,286047000.7,N
1569537695.3,286046999.3,N
1569537715.1,286046998.8,N
1569537735.9,286046999.1,N
1569537755.7,286046996.5,N
1569537775.5,286046998.5,N
1569537795.4,286047002.7,N
1569537815.2,286047001.5,N
1569537835.0,286047002.1,N
1569537836.0,286047002.1,N
1569537855.8,286047001.5,N
1569537875.6,286047000.4,N
1569537895.5,286047001.1,N
1569537915.3,286047001.2,N
1569537935.1,286047002.7,N
1569537955.9,286047002.4,N
1569537975.7,286046998.4,N
1569537995.6,286046999.1,N
1569538015.4,286046998.5,N
1569538035.2,286047000.9,N
1569538055.1,286046998.4,N
1569538056.0,286046998.4,N
1569538075.8,286047001.2,N
1569538095.7,286047000.5,N
1569538115.5,286047000.0,N
1569538135.3,286047000.1,N
1569538155.2,286047002.7,N
1569538175.0,286047000.7,N
1569538175.9,286047000.7,N
1569538195.8,286047000.7,N
1569538215.6,286047000.7,N
1569538235.4,286047000.4,N
1569538255.3,286046998.5,N
1569538275.1,286046998.3,N
1569538295.8,286047000.8,N
1569538315.7,286047000.4,N
1569538335.5,286047000.7,N
1569538355.4,286046999.9,N
1569538375.2,286047000.3,N
1569538395.0,286047000.3,N
1569538395.9,286047000.3,N
1569538415.8,286047000.8,N
1569538435.6,286047000.5,N
1569538455.5,286047000.3,N
1569538475.3,286047000.5,N
1569538495.1,286047002.3,N
1569538515.9,286047000.9,N
1569538535.7,286046998.7,N
1569538555.6,286047000.5,N
1569538575.4,286047001.2,N
1569538595.2,286047001.1,N
1569538615.1,286046999.3,N
1569538616.0,286046999.3,N
1569538635.8,286047000.9,N
1569538655.7,286047000.4,N
1569538675.5,286047001.3,N
1569538695.3,286047002.3,N
1569538715.2,286047000.3,N
1569538735.0,286047000.7,N
1569538735.9,286047000.7,N
1569538755.8,286046999.9,N
1569538775.6,286047000.3,N
1569538795.4,286047000.6,N
